contact:dominique.lefevre@mio.osupytheas.fr, maurice.libes@osupytheas.fr, didier.mallarino@osupytheas.fr
Project:EMSO http://www.emso-fr.org/EMSO-France
Depth: 2436.0 m
Title:EMSO Ligure Ouest : Data MII capteur CSTAR
DateTime,Latitude,Longitude,Instrument_Serial,Reference_Counts,Signal_Counts,Corrected_Signal_raw_counts,Calculated_Beam_c_inverse_meters,Internal_thermistor_counts
DateTime,Latitude,Longitude,Instrument_Serial,Reference_Counts,Signal_Counts,Corrected_Signal_raw_counts,Calculated_Beam_c_inverse_meters,Internal_thermistor_counts
2023-01-30T00:00:37,42.805,6.029,CST-1368DR,4401,4900,11831,01.110,551
2023-01-30T00:03:38,42.805,6.029,CST-1368DR,4401,4903,11838,01.108,551
2023-01-30T00:06:40,42.805,6.029,CST-1368DR,4401,4902,11836,01.109,551
2023-01-30T00:09:41,42.805,6.029,CST-1368DR,4401,4909,11853,01.103,551
2023-01-30T00:12:43,42.805,6.029,CST-1368DR,4401,4905,11843,01.106,551
2023-01-30T00:15:44,42.805,6.029,CST-1368DR,4401,4908,11851,01.104,551
2023-01-30T00:18:46,42.805,6.029,CST-1368DR,4401,4909,11854,01.103,551
2023-01-30T00:21:48,42.805,6.029,CST-1368DR,4401,4908,11851,01.104,551
2023-01-30T00:24:49,42.805,6.029,CST-1368DR,4401,4908,11850,01.104,551
2023-01-30T00:27:51,42.805,6.029,CST-1368DR,4401,4906,11846,01.105,551
2023-01-30T00:30:52,42.805,6.029,CST-1368DR,4401,4906,11846,01.105,551
2023-01-30T00:33:54,42.805,6.029,CST-1368DR,4401,4904,11841,01.107,551
2023-01-30T00:36:56,42.805,6.029,CST-1368DR,4401,4905,11843,01.106,551
2023-01-30T00:39:57,42.805,6.029,CST-1368DR,4401,4904,11842,01.107,551
2023-01-30T00:42:59,42.805,6.029,CST-1368DR,4401,4904,11842,01.107,551
2023-01-30T00:46:00,42.805,6.029,CST-1368DR,4401,4907,11848,01.105,551
2023-01-30T00:49:02,42.805,6.029,CST-1368DR,4401,4905,11843,01.106,551
2023-01-30T00:52:03,42.805,6.029,CST-1368DR,4401,4905,11843,01.106,551
2023-01-30T00:55:05,42.805,6.029,CST-1368DR,4401,4905,11843,01.106,551
2023-01-30T00:58:07,42.805,6.029,CST-1368DR,4401,4906,11845,01.106,551
2023-01-30T01:01:08,42.805,6.029,CST-1368DR,4401,4906,11845,01.106,551
2023-01-30T01:04:10,42.805,6.029,CST-1368DR,4401,4906,11846,01.105,551
2023-01-30T01:07:11,42.805,6.029,CST-1368DR,4401,4904,11842,01.107,551
2023-01-30T01:10:13,42.805,6.029,CST-1368DR,4401,4905,11843,01.106,551
2023-01-30T01:13:15,42.805,6.029,CST-1368DR,4401,4906,11846,01.105,551
2023-01-30T01:16:16,42.805,6.029,CST-1368DR,4401,4906,11846,01.105,551
2023-01-30T01:19:18,42.805,6.029,CST-1368DR,4401,4905,11843,01.106,551
2023-01-30T01:22:19,42.805,6.029,CST-1368DR,4401,4904,11842,01.107,551
2023-01-30T01:25:21,42.805,6.029,CST-1368DR,4401,4905,11843,01.106,551
2023-01-30T01:28:22,42.805,6.029,CST-1368DR,4401,4903,11839,01.108,551
2023-01-30T01:31:24,42.805,6.029,CST-1368DR,4401,4902,11836,01.109,551
2023-01-30T01:34:26,42.805,6.029,CST-1368DR,4401,4904,11841,01.107,551
2023-01-30T01:37:27,42.805,6.029,CST-1368DR,4401,4904,11841,01.107,551
2023-01-30T01:40:29,42.805,6.029,CST-1368DR,4401,4902,11837,01.108,551
2023-01-30T01:43:30,42.805,6.029,CST-1368DR,4401,4903,11839,01.108,551
2023-01-30T01:46:32,42.805,6.029,CST-1368DR,4401,4904,11840,01.107,551
2023-01-30T01:49:34,42.805,6.029,CST-1368DR,4401,4901,11834,01.109,551
2023-01-30T01:52:35,42.805,6.029,CST-1368DR,4401,4902,11836,01.109,551
2023-01-30T01:55:37,42.805,6.029,CST-1368DR,4401,4901,11834,01.109,551
2023-01-30T01:58:38,42.805,6.029,CST-1368DR,4401,4901,11835,01.109,551
2023-01-30T02:01:40,42.805,6.029,CST-1368DR,4401,4901,11835,01.109,551
2023-01-30T02:04:41,42.805,6.029,CST-1368DR,4401,4901,11835,01.109,551
2023-01-30T02:07:43,42.805,6.029,CST-1368DR,4401,4901,11835,01.109,551
2023-01-30T02:10:45,42.805,6.029,CST-1368DR,4401,4885,11796,01.122,551
2023-01-30T02:13:46,42.805,6.029,CST-1368DR,4401,4885,11795,01.122,551
2023-01-30T02:16:48,42.805,6.029,CST-1368DR,4401,4883,11791,01.124,551
2023-01-30T02:19:49,42.805,6.029,CST-1368DR,4401,4882,11788,01.125,551
2023-01-30T02:22:51,42.805,6.029,CST-1368DR,4401,4890,11807,01.118,551
2023-01-30T02:25:53,42.805,6.029,CST-1368DR,4401,4887,11801,01.120,551
2023-01-30T02:28:54,42.805,6.029,CST-1368DR,4401,4885,11796,01.122,551
2023-01-30T02:31:56,42.805,6.029,CST-1368DR,4401,4885,11796,01.122,551
2023-01-30T02:34:57,42.805,6.029,CST-1368DR,4401,4884,11792,01.123,551
2023-01-30T02:37:59,42.805,6.029,CST-1368DR,4401,4881,11787,01.125,551
2023-01-30T02:41:01,42.805,6.029,CST-1368DR,4401,4882,11789,01.125,551
2023-01-30T02:44:02,42.805,6.029,CST-1368DR,4401,4885,11796,01.122,551
2023-01-30T02:47:04,42.805,6.029,CST-1368DR,4401,4884,11793,01.123,551
2023-01-30T02:50:05,42.805,6.029,CST-1368DR,4401,4884,11792,01.123,551
2023-01-30T02:53:07,42.805,6.029,CST-1368DR,4401,4884,11793,01.123,551
2023-01-30T02:56:08,42.805,6.029,CST-1368DR,4401,4883,11790,01.124,551
2023-01-30T02:59:10,42.805,6.029,CST-1368DR,4401,4883,11791,01.124,551
2023-01-30T03:02:12,42.805,6.029,CST-1368DR,4401,4880,11784,01.126,551
2023-01-30T03:05:13,42.805,6.029,CST-1368DR,4401,4881,11787,01.125,551
2023-01-30T03:08:15,42.805,6.029,CST-1368DR,4401,4883,11790,01.124,551
2023-01-30T03:11:16,42.805,6.029,CST-1368DR,4401,4884,11792,01.123,551
2023-01-30T03:14:18,42.805,6.029,CST-1368DR,4401,4881,11787,01.125,551
2023-01-30T03:17:20,42.805,6.029,CST-1368DR,4401,4881,11785,01.126,551
2023-01-30T03:20:21,42.805,6.029,CST-1368DR,4401,4883,11791,01.124,551
2023-01-30T03:23:23,42.805,6.029,CST-1368DR,4401,4884,11792,01.123,551
2023-01-30T03:26:24,42.805,6.029,CST-1368DR,4401,4882,11788,01.125,551
2023-01-30T03:29:26,42.805,6.029,CST-1368DR,4401,4881,11787,01.125,551
2023-01-30T03:32:27,42.805,6.029,CST-1368DR,4401,4880,11784,01.126,551
2023-01-30T03:35:29,42.805,6.029,CST-1368DR,4401,4880,11784,01.126,551
2023-01-30T03:38:31,42.805,6.029,CST-1368DR,4401,4879,11782,01.127,551
2023-01-30T03:41:32,42.805,6.029,CST-1368DR,4401,4878,11779,01.128,551
2023-01-30T03:44:34,42.805,6.029,CST-1368DR,4401,4877,11776,01.129,551
2023-01-30T03:47:35,42.805,6.029,CST-1368DR,4401,4876,11773,01.130,551
2023-01-30T03:50:37,42.805,6.029,CST-1368DR,4401,4877,11777,01.129,551
2023-01-30T03:53:39,42.805,6.029,CST-1368DR,4401,4886,11797,01.122,551
2023-01-30T03:56:40,42.805,6.029,CST-1368DR,4401,4884,11794,01.123,551
2023-01-30T03:59:42,42.805,6.029,CST-1368DR,4401,4878,11779,01.128,551
2023-01-30T04:02:43,42.805,6.029,CST-1368DR,4401,4878,11778,01.128,551
2023-01-30T04:05:45,42.805,6.029,CST-1368DR,4401,4879,11781,01.127,551
2023-01-30T04:08:47,42.805,6.029,CST-1368DR,4401,4879,11781,01.127,551
2023-01-30T04:11:48,42.805,6.029,CST-1368DR,4401,4878,11778,01.128,551
2023-01-30T04:14:50,42.805,6.029,CST-1368DR,4401,4877,11777,01.129,551
2023-01-30T04:17:51,42.805,6.029,CST-1368DR,4401,4878,11779,01.128,551
2023-01-30T04:20:53,42.805,6.029,CST-1368DR,4401,4884,11793,01.123,551
2023-01-30T04:23:54,42.805,6.029,CST-1368DR,4401,4879,11780,01.128,551
2023-01-30T04:26:56,42.805,6.029,CST-1368DR,4401,4881,11787,01.125,551
2023-01-30T04:29:58,42.805,6.029,CST-1368DR,4401,4881,11785,01.126,551
2023-01-30T04:32:59,42.805,6.029,CST-1368DR,4401,4880,11784,01.126,551
2023-01-30T04:36:01,42.805,6.029,CST-1368DR,4401,4878,11778,01.128,551
2023-01-30T04:39:02,42.805,6.029,CST-1368DR,4401,4880,11784,01.126,551
2023-01-30T04:42:04,42.805,6.029,CST-1368DR,4401,4880,11783,01.127,551
2023-01-30T04:45:06,42.805,6.029,CST-1368DR,4401,4879,11782,01.127,551
2023-01-30T04:48:07,42.805,6.029,CST-1368DR,4401,4881,11785,01.126,551
2023-01-30T04:51:09,42.805,6.029,CST-1368DR,4401,4880,11784,01.126,551
2023-01-30T04:54:10,42.805,6.029,CST-1368DR,4401,4882,11788,01.125,551
2023-01-30T04:57:12,42.805,6.029,CST-1368DR,4401,4880,11784,01.126,551
2023-01-30T05:00:13,42.805,6.029,CST-1368DR,4401,4877,11776,01.129,551
2023-01-30T05:03:15,42.805,6.029,CST-1368DR,4401,4881,11786,01.126,551
2023-01-30T05:06:17,42.805,6.029,CST-1368DR,4401,4880,11784,01.126,551
2023-01-30T05:09:18,42.805,6.029,CST-1368DR,4401,4878,11779,01.128,551
2023-01-30T05:12:20,42.805,6.029,CST-1368DR,4401,4879,11781,01.127,551
2023-01-30T05:15:21,42.805,6.029,CST-1368DR,4401,4885,11796,01.122,551
2023-01-30T05:18:23,42.805,6.029,CST-1368DR,4401,4882,11789,01.125,551
2023-01-30T05:21:25,42.805,6.029,CST-1368DR,4401,4885,11796,01.122,551
2023-01-30T05:24:26,42.805,6.029,CST-1368DR,4401,4882,11788,01.125,551
2023-01-30T05:27:28,42.805,6.029,CST-1368DR,4401,4891,11810,01.117,551
2023-01-30T05:30:29,42.805,6.029,CST-1368DR,4401,4890,11808,01.118,551
2023-01-30T05:33:31,42.805,6.029,CST-1368DR,4401,4895,11820,01.114,551
2023-01-30T05:36:32,42.805,6.029,CST-1368DR,4401,4890,11808,01.118,551
2023-01-30T05:39:34,42.805,6.029,CST-1368DR,4401,4890,11807,01.118,550
2023-01-30T05:42:36,42.805,6.029,CST-1368DR,4401,4890,11808,01.118,551
2023-01-30T05:45:37,42.805,6.029,CST-1368DR,4401,4889,11805,01.119,551
2023-01-30T05:48:39,42.805,6.029,CST-1368DR,4401,4887,11801,01.120,551
2023-01-30T05:51:40,42.805,6.029,CST-1368DR,4401,4886,11798,01.121,551
2023-01-30T05:54:42,42.805,6.029,CST-1368DR,4401,4883,11791,01.124,551
2023-01-30T05:57:44,42.805,6.029,CST-1368DR,4401,4882,11788,01.125,551
2023-01-30T06:00:45,42.805,6.029,CST-1368DR,4401,4886,11797,01.122,551
2023-01-30T06:03:47,42.805,6.029,CST-1368DR,4401,4887,11801,01.120,551
2023-01-30T06:06:48,42.805,6.029,CST-1368DR,4401,4888,11803,01.120,551
2023-01-30T06:09:50,42.805,6.029,CST-1368DR,4401,4886,11798,01.121,551
2023-01-30T06:12:51,42.805,6.029,CST-1368DR,4401,4883,11791,01.124,551
2023-01-30T06:15:53,42.805,6.029,CST-1368DR,4401,4883,11790,01.124,551
2023-01-30T06:18:55,42.805,6.029,CST-1368DR,4401,4880,11784,01.126,551
2023-01-30T06:21:56,42.805,6.029,CST-1368DR,4401,4880,11784,01.126,551
2023-01-30T06:24:58,42.805,6.029,CST-1368DR,4401,4882,11787,01.125,551
2023-01-30T06:27:59,42.805,6.029,CST-1368DR,4401,4886,11798,01.121,551
2023-01-30T06:31:01,42.805,6.029,CST-1368DR,4401,4882,11787,01.125,551
2023-01-30T06:34:03,42.805,6.029,CST-1368DR,4401,4887,11801,01.120,551
2023-01-30T06:37:04,42.805,6.029,CST-1368DR,4401,4883,11791,01.124,551
2023-01-30T06:40:06,42.805,6.029,CST-1368DR,4401,4891,11810,01.117,551
2023-01-30T06:43:07,42.805,6.029,CST-1368DR,4401,4890,11808,01.118,551
2023-01-30T06:46:09,42.805,6.029,CST-1368DR,4401,4888,11804,01.119,551
2023-01-30T06:49:10,42.805,6.029,CST-1368DR,4401,4883,11791,01.124,551
2023-01-30T06:52:12,42.805,6.029,CST-1368DR,4401,4892,11813,01.116,551
2023-01-30T06:55:14,42.805,6.029,CST-1368DR,4401,4887,11801,01.120,551
2023-01-30T06:58:15,42.805,6.029,CST-1368DR,4401,4885,11795,01.122,551
2023-01-30T07:01:17,42.805,6.029,CST-1368DR,4401,4884,11793,01.123,551
2023-01-30T07:04:18,42.805,6.029,CST-1368DR,4400,4881,11789,01.125,551
2023-01-30T07:07:20,42.805,6.029,CST-1368DR,4401,4884,11794,01.123,551
2023-01-30T07:10:22,42.805,6.029,CST-1368DR,4401,4902,11837,01.108,551
2023-01-30T07:13:23,42.805,6.029,CST-1368DR,4401,4901,11833,01.110,551
2023-01-30T07:16:25,42.805,6.029,CST-1368DR,4401,4902,11837,01.108,551
2023-01-30T07:19:26,42.805,6.029,CST-1368DR,4401,4902,11836,01.109,551
2023-01-30T07:22:28,42.805,6.029,CST-1368DR,4401,4902,11837,01.108,551
2023-01-30T07:25:29,42.805,6.029,CST-1368DR,4401,4900,11831,01.110,551
2023-01-30T07:28:31,42.805,6.029,CST-1368DR,4401,4899,11830,01.111,551
2023-01-30T07:31:33,42.805,6.029,CST-1368DR,4401,4901,11835,01.109,551
2023-01-30T07:34:34,42.805,6.029,CST-1368DR,4401,4903,11839,01.108,551
2023-01-30T07:37:36,42.805,6.029,CST-1368DR,4401,4903,11839,01.108,551
2023-01-30T07:40:37,42.805,6.029,CST-1368DR,4400,4902,11839,01.108,551
2023-01-30T07:43:39,42.805,6.029,CST-1368DR,4401,4901,11835,01.109,551
2023-01-30T07:46:41,42.805,6.029,CST-1368DR,4401,4903,11838,01.108,551
2023-01-30T07:49:42,42.805,6.029,CST-1368DR,4401,4901,11834,01.109,551
2023-01-30T07:52:44,42.805,6.029,CST-1368DR,4401,4901,11835,01.109,551
2023-01-30T07:55:45,42.805,6.029,CST-1368DR,4401,4902,11837,01.108,551
2023-01-30T07:58:47,42.805,6.029,CST-1368DR,4401,4902,11836,01.109,551
2023-01-30T08:01:48,42.805,6.029,CST-1368DR,4401,4902,11836,01.109,551
2023-01-30T08:04:50,42.805,6.029,CST-1368DR,4401,4902,11836,01.109,551
2023-01-30T08:07:52,42.805,6.029,CST-1368DR,4401,4902,11836,01.109,551
2023-01-30T08:10:53,42.805,6.029,CST-1368DR,4401,4902,11836,01.109,551
2023-01-30T08:13:55,42.805,6.029,CST-1368DR,4401,4903,11839,01.108,551
2023-01-30T08:16:56,42.805,6.029,CST-1368DR,4401,4904,11840,01.107,551
2023-01-30T08:19:58,42.805,6.029,CST-1368DR,4401,4903,11839,01.108,551
2023-01-30T08:23:00,42.805,6.029,CST-1368DR,4401,4903,11839,01.108,551
2023-01-30T08:26:01,42.805,6.029,CST-1368DR,4401,4904,11842,01.107,551
2023-01-30T08:29:03,42.805,6.029,CST-1368DR,4400,4905,11845,01.106,551
2023-01-30T08:32:04,42.805,6.029,CST-1368DR,4400,4905,11847,01.105,551
2023-01-30T08:35:06,42.805,6.029,CST-1368DR,4401,4905,11844,01.106,551
2023-01-30T08:38:07,42.805,6.029,CST-1368DR,4401,4905,11843,01.106,551
2023-01-30T08:41:09,42.805,6.029,CST-1368DR,4401,4905,11844,01.106,551
2023-01-30T08:44:11,42.805,6.029,CST-1368DR,4400,4903,11841,01.107,551
2023-01-30T08:47:12,42.805,6.029,CST-1368DR,4400,4904,11844,01.106,551
2023-01-30T08:50:14,42.805,6.029,CST-1368DR,4400,4905,11847,01.105,551
2023-01-30T08:53:15,42.805,6.029,CST-1368DR,4401,4902,11836,01.109,551
2023-01-30T08:56:17,42.805,6.029,CST-1368DR,4401,4904,11841,01.107,551
2023-01-30T08:59:19,42.805,6.029,CST-1368DR,4401,4906,11846,01.105,551
2023-01-30T09:02:20,42.805,6.029,CST-1368DR,4401,4906,11847,01.105,551
2023-01-30T09:05:22,42.805,6.029,CST-1368DR,4401,4905,11845,01.106,551
2023-01-30T09:08:23,42.805,6.029,CST-1368DR,4401,4907,11848,01.105,551
2023-01-30T09:11:25,42.805,6.029,CST-1368DR,4401,4907,11849,01.104,551
2023-01-30T09:14:26,42.805,6.029,CST-1368DR,4401,4902,11836,01.109,551
2023-01-30T09:17:28,42.805,6.029,CST-1368DR,4400,4903,11841,01.107,551
2023-01-30T09:20:30,42.805,6.029,CST-1368DR,4401,4902,11837,01.108,551
2023-01-30T09:23:31,42.805,6.029,CST-1368DR,4401,4898,11828,01.111,551
2023-01-30T09:26:33,42.805,6.029,CST-1368DR,4401,4902,11836,01.109,551
2023-01-30T09:29:34,42.805,6.029,CST-1368DR,4401,4900,11833,01.110,551
2023-01-30T09:32:36,42.805,6.029,CST-1368DR,4400,4902,11839,01.108,551
2023-01-30T09:35:38,42.805,6.029,CST-1368DR,4400,4903,11841,01.107,551
2023-01-30T09:38:39,42.805,6.029,CST-1368DR,4400,4902,11839,01.108,551
2023-01-30T09:41:41,42.805,6.029,CST-1368DR,4400,4904,11844,01.106,551
2023-01-30T09:44:42,42.805,6.029,CST-1368DR,4400,4903,11841,01.107,551
2023-01-30T09:47:44,42.805,6.029,CST-1368DR,4400,4903,11842,01.107,551
2023-01-30T09:50:45,42.805,6.029,CST-1368DR,4400,4904,11844,01.106,551
2023-01-30T09:53:47,42.805,6.029,CST-1368DR,4400,4903,11841,01.107,551
2023-01-30T09:56:49,42.805,6.029,CST-1368DR,4401,4904,11842,01.107,551
2023-01-30T09:59:50,42.805,6.029,CST-1368DR,4400,4905,11846,01.105,551
2023-01-30T10:02:52,42.805,6.029,CST-1368DR,4400,4904,11844,01.106,551
2023-01-30T10:05:53,42.805,6.029,CST-1368DR,4401,4905,11844,01.106,551
2023-01-30T10:08:55,42.805,6.029,CST-1368DR,4401,4904,11842,01.107,551
2023-01-30T10:11:57,42.805,6.029,CST-1368DR,4401,4905,11844,01.106,551
2023-01-30T10:14:58,42.805,6.029,CST-1368DR,4400,4904,11845,01.106,551
2023-01-30T10:18:00,42.805,6.029,CST-1368DR,4400,4904,11844,01.106,551
2023-01-30T10:21:01,42.805,6.029,CST-1368DR,4400,4905,11847,01.105,551
2023-01-30T10:24:03,42.805,6.029,CST-1368DR,4400,4882,11791,01.124,551
2023-01-30T10:27:04,42.805,6.029,CST-1368DR,4400,4878,11781,01.127,551
2023-01-30T10:30:06,42.805,6.029,CST-1368DR,4400,4878,11780,01.128,551
2023-01-30T10:33:08,42.805,6.029,CST-1368DR,4400,4879,11784,01.126,551
2023-01-30T10:36:09,42.805,6.029,CST-1368DR,4400,4871,11765,01.133,551
2023-01-30T10:39:11,42.805,6.029,CST-1368DR,4400,4875,11773,01.130,551
2023-01-30T10:42:12,42.805,6.029,CST-1368DR,4400,4874,11771,01.131,551
2023-01-30T10:45:14,42.805,6.029,CST-1368DR,4400,4869,11758,01.135,551
2023-01-30T10:48:16,42.805,6.029,CST-1368DR,4400,4876,11775,01.129,551
2023-01-30T10:51:17,42.805,6.029,CST-1368DR,4400,4869,11760,01.134,551
2023-01-30T10:54:19,42.805,6.029,CST-1368DR,4400,4872,11767,01.132,551
2023-01-30T10:57:20,42.805,6.029,CST-1368DR,4400,4873,11769,01.131,551
2023-01-30T11:00:22,42.805,6.029,CST-1368DR,4400,4865,11749,01.138,551
2023-01-30T11:03:24,42.805,6.029,CST-1368DR,4400,4873,11768,01.132,551
2023-01-30T11:06:25,42.805,6.029,CST-1368DR,4400,4870,11762,01.134,551
2023-01-30T11:09:27,42.805,6.029,CST-1368DR,4400,4869,11758,01.135,551
2023-01-30T11:12:28,42.805,6.029,CST-1368DR,4400,4872,11766,01.132,551
2023-01-30T11:15:30,42.805,6.029,CST-1368DR,4400,4872,11767,01.132,551
2023-01-30T11:18:31,42.805,6.029,CST-1368DR,4400,4865,11749,01.138,551
2023-01-30T11:21:33,42.805,6.029,CST-1368DR,4400,4870,11762,01.134,551
2023-01-30T11:24:35,42.805,6.029,CST-1368DR,4400,4870,11762,01.134,551
2023-01-30T11:27:36,42.805,6.029,CST-1368DR,4400,4868,11758,01.135,551
2023-01-30T11:30:38,42.805,6.029,CST-1368DR,4400,4864,11747,01.139,551
2023-01-30T11:33:39,42.805,6.029,CST-1368DR,4400,4863,11744,01.140,551
2023-01-30T11:36:41,42.805,6.029,CST-1368DR,4400,4862,11742,01.140,551
2023-01-30T11:39:43,42.805,6.029,CST-1368DR,4400,4865,11749,01.138,551
2023-01-30T11:42:44,42.805,6.029,CST-1368DR,4400,4858,11733,01.144,551
2023-01-30T11:45:46,42.805,6.029,CST-1368DR,4400,4862,11743,01.140,551
2023-01-30T11:48:47,42.805,6.029,CST-1368DR,4400,4861,11740,01.141,551
2023-01-30T11:51:49,42.805,6.029,CST-1368DR,4400,4864,11747,01.139,551
2023-01-30T11:54:50,42.805,6.029,CST-1368DR,4400,4861,11741,01.141,551
2023-01-30T11:57:52,42.805,6.029,CST-1368DR,4400,4863,11744,01.140,551
2023-01-30T12:00:54,42.805,6.029,CST-1368DR,4400,4855,11726,01.146,551
2023-01-30T12:03:55,42.805,6.029,CST-1368DR,4400,4860,11739,01.142,551
2023-01-30T12:06:57,42.805,6.029,CST-1368DR,4400,4862,11742,01.140,551
2023-01-30T12:09:58,42.805,6.029,CST-1368DR,4400,4857,11731,01.144,551
2023-01-30T12:13:00,42.805,6.029,CST-1368DR,4400,4852,11718,01.149,551
2023-01-30T12:16:02,42.805,6.029,CST-1368DR,4400,4853,11721,01.148,551
2023-01-30T12:19:03,42.805,6.029,CST-1368DR,4400,4855,11725,01.146,551
2023-01-30T12:22:05,42.805,6.029,CST-1368DR,4400,4854,11723,01.147,551
2023-01-30T12:25:06,42.805,6.029,CST-1368DR,4400,4858,11732,01.144,551
2023-01-30T12:28:08,42.805,6.029,CST-1368DR,4400,4854,11724,01.147,551
2023-01-30T12:31:09,42.805,6.029,CST-1368DR,4400,4860,11737,01.142,551
2023-01-30T12:34:11,42.805,6.029,CST-1368DR,4400,4866,11751,01.137,551
2023-01-30T12:37:13,42.805,6.029,CST-1368DR,4400,4860,11738,01.142,551
2023-01-30T12:40:14,42.805,6.029,CST-1368DR,4400,4858,11733,01.144,551
2023-01-30T12:43:16,42.805,6.029,CST-1368DR,4400,4859,11735,01.143,551
2023-01-30T12:46:17,42.805,6.029,CST-1368DR,4400,4857,11730,01.145,551
2023-01-30T12:49:19,42.805,6.029,CST-1368DR,4400,4857,11731,01.144,551
2023-01-30T12:52:21,42.805,6.029,CST-1368DR,4400,4860,11737,01.142,551
2023-01-30T12:55:22,42.805,6.029,CST-1368DR,4400,4853,11720,01.148,551
2023-01-30T12:58:24,42.805,6.029,CST-1368DR,4400,4856,11729,01.145,551
2023-01-30T13:01:25,42.805,6.029,CST-1368DR,4400,4856,11729,01.145,551
2023-01-30T13:04:27,42.805,6.029,CST-1368DR,4400,4859,11735,01.143,551
2023-01-30T13:07:29,42.805,6.029,CST-1368DR,4400,4857,11730,01.145,551
2023-01-30T13:10:30,42.805,6.029,CST-1368DR,4400,4859,11735,01.143,551
2023-01-30T13:13:32,42.805,6.029,CST-1368DR,4400,4857,11730,01.145,551
2023-01-30T13:16:33,42.805,6.029,CST-1368DR,4400,4857,11731,01.144,551
2023-01-30T13:19:35,42.805,6.029,CST-1368DR,4400,4857,11731,01.144,551
2023-01-30T13:22:36,42.805,6.029,CST-1368DR,4400,4855,11726,01.146,551
2023-01-30T13:25:38,42.805,6.029,CST-1368DR,4400,4852,11719,01.148,551
2023-01-30T13:28:40,42.805,6.029,CST-1368DR,4400,4858,11733,01.144,551
2023-01-30T13:31:41,42.805,6.029,CST-1368DR,4400,4856,11727,01.146,551
2023-01-30T13:34:43,42.805,6.029,CST-1368DR,4400,4855,11726,01.146,551
2023-01-30T13:37:44,42.805,6.029,CST-1368DR,4400,4855,11725,01.146,551
2023-01-30T13:40:46,42.805,6.029,CST-1368DR,4400,4856,11727,01.146,551
2023-01-30T13:43:48,42.805,6.029,CST-1368DR,4400,4855,11725,01.146,551
2023-01-30T13:46:49,42.805,6.029,CST-1368DR,4400,4855,11725,01.146,551
2023-01-30T13:49:51,42.805,6.029,CST-1368DR,4400,4857,11731,01.144,551
2023-01-30T13:52:52,42.805,6.029,CST-1368DR,4400,4864,11748,01.138,551
2023-01-30T13:55:54,42.805,6.029,CST-1368DR,4400,4856,11728,01.145,551
2023-01-30T13:58:55,42.805,6.029,CST-1368DR,4400,4852,11719,01.148,551
2023-01-30T14:01:57,42.805,6.029,CST-1368DR,4400,4855,11725,01.146,551
2023-01-30T14:04:59,42.805,6.029,CST-1368DR,4400,4855,11725,01.146,551
2023-01-30T14:08:00,42.805,6.029,CST-1368DR,4400,4856,11729,01.145,551
2023-01-30T14:11:02,42.805,6.029,CST-1368DR,4400,4855,11726,01.146,551
2023-01-30T14:14:03,42.805,6.029,CST-1368DR,4400,4857,11730,01.145,551
2023-01-30T14:17:05,42.805,6.029,CST-1368DR,4400,4857,11730,01.145,551
2023-01-30T14:20:07,42.805,6.029,CST-1368DR,4400,4862,11742,01.140,551
2023-01-30T14:23:08,42.805,6.029,CST-1368DR,4400,4854,11723,01.147,551
2023-01-30T14:26:10,42.805,6.029,CST-1368DR,4400,4858,11734,01.143,551
2023-01-30T14:29:11,42.805,6.029,CST-1368DR,4400,4855,11725,01.146,551
2023-01-30T14:32:13,42.805,6.029,CST-1368DR,4400,4854,11723,01.147,551
2023-01-30T14:35:14,42.805,6.029,CST-1368DR,4400,4846,11704,01.153,551
2023-01-30T14:38:16,42.805,6.029,CST-1368DR,4400,4844,11700,01.155,551
2023-01-30T14:41:18,42.805,6.029,CST-1368DR,4400,4845,11700,01.155,551
2023-01-30T14:44:19,42.805,6.029,CST-1368DR,4400,4848,11709,01.152,551
2023-01-30T14:47:21,42.805,6.029,CST-1368DR,4400,4849,11710,01.151,551
2023-01-30T14:50:22,42.805,6.029,CST-1368DR,4400,4849,11711,01.151,551
2023-01-30T14:53:24,42.805,6.029,CST-1368DR,4400,4849,11711,01.151,551
2023-01-30T14:56:26,42.805,6.029,CST-1368DR,4400,4849,11711,01.151,551
2023-01-30T14:59:27,42.805,6.029,CST-1368DR,4400,4846,11705,01.153,551
2023-01-30T15:02:29,42.805,6.029,CST-1368DR,4400,4849,11711,01.151,551
2023-01-30T15:05:30,42.805,6.029,CST-1368DR,4400,4846,11703,01.154,551
2023-01-30T15:08:32,42.805,6.029,CST-1368DR,4400,4845,11700,01.155,551
2023-01-30T15:11:33,42.805,6.029,CST-1368DR,4400,4848,11710,01.151,551
2023-01-30T15:14:35,42.805,6.029,CST-1368DR,4400,4846,11704,01.153,551
2023-01-30T15:17:37,42.805,6.029,CST-1368DR,4400,4851,11717,01.149,551
2023-01-30T15:20:38,42.805,6.029,CST-1368DR,4400,4849,11711,01.151,551
2023-01-30T15:23:40,42.805,6.029,CST-1368DR,4400,4849,11711,01.151,551
2023-01-30T15:26:41,42.805,6.029,CST-1368DR,4400,4848,11710,01.151,551
2023-01-30T15:29:43,42.805,6.029,CST-1368DR,4400,4854,11722,01.147,551
2023-01-30T15:32:45,42.805,6.029,CST-1368DR,4400,4845,11702,01.154,551
2023-01-30T15:35:46,42.805,6.029,CST-1368DR,4400,4847,11707,01.152,551
2023-01-30T15:38:48,42.805,6.029,CST-1368DR,4400,4858,11732,01.144,551
2023-01-30T15:41:49,42.805,6.029,CST-1368DR,4400,4854,11724,01.147,551
2023-01-30T15:44:51,42.805,6.029,CST-1368DR,4400,4856,11728,01.145,551
2023-01-30T15:47:52,42.805,6.029,CST-1368DR,4400,4856,11727,01.146,551
2023-01-30T15:50:54,42.805,6.029,CST-1368DR,4400,4858,11732,01.144,551
2023-01-30T15:53:56,42.805,6.029,CST-1368DR,4400,4857,11730,01.145,551
2023-01-30T15:56:57,42.805,6.029,CST-1368DR,4400,4857,11730,01.145,551
2023-01-30T15:59:59,42.805,6.029,CST-1368DR,4400,4855,11725,01.146,551
2023-01-30T16:03:00,42.805,6.029,CST-1368DR,4400,4858,11732,01.144,551
2023-01-30T16:06:02,42.805,6.029,CST-1368DR,4400,4855,11726,01.146,551
2023-01-30T16:09:04,42.805,6.029,CST-1368DR,4400,4862,11743,01.140,551
2023-01-30T16:12:05,42.805,6.029,CST-1368DR,4400,4852,11718,01.149,551
2023-01-30T16:15:07,42.805,6.029,CST-1368DR,4400,4856,11728,01.145,551
2023-01-30T16:18:08,42.805,6.029,CST-1368DR,4400,4862,11742,01.140,551
2023-01-30T16:21:10,42.805,6.029,CST-1368DR,4400,4855,11725,01.146,551
2023-01-30T16:24:12,42.805,6.029,CST-1368DR,4400,4854,11723,01.147,551
2023-01-30T16:27:13,42.805,6.029,CST-1368DR,4400,4857,11730,01.145,551
2023-01-30T16:30:15,42.805,6.029,CST-1368DR,4400,4856,11729,01.145,551
2023-01-30T16:33:16,42.805,6.029,CST-1368DR,4400,4861,11741,01.141,551
2023-01-30T16:36:18,42.805,6.029,CST-1368DR,4400,4858,11732,01.144,551